Location: Unspecified
(51.0950°N, 12.9690°E)
Time: 15:37:38
(UTC+00:00)

BEESAT - Pass Details

Date: 01 May 2024
Orbit: 692 x 702 km, 98.5° (Epoch: 27 May)

Event Time Altitude Azimuth Distance (km) Brightness Sun altitude
Rises 22:57:31 0° 4° (N) 3,084 ? -23.4°
Reaches altitude 10° 23:00:22 10° 346° (NNW) 2,161 ? -23.4°
Maximum altitude 23:03:32 18° 304° (NW) 1,670 ? -23.4°
Drops below altitude 10° 23:06:41 10° 261° (W) 2,152 ? -23.4°
Enters shadow 23:06:49 10° 260° (W) 2,185 ? -23.4°
